This is the latest recevied weather packets stored in our database for station/object IU2EVW-13. If no packets are shown the sender has not sent any weather packets the latest 1 day(s).
| Time | Temp. | Humidity | Pressure | Rain* | Wind** | Luminosity | Snow |
|---|---|---|---|---|---|---|---|
| 1777788072 | 11.67° C | 57% | 1022.3 hPa | - | - | - | - |
| 1777786870 | 11.11° C | 55% | 1022.2 hPa | - | - | - | - |
| 1777785669 | 11.11° C | 55% | 1022.1 hPa | - | - | - | - |
| 1777784468 | 11.11° C | 55% | 1022.2 hPa | - | - | - | - |
| 1777783267 | 10.56° C | 55% | 1022.2 hPa | - | - | - | - |
| 1777782065 | 10.56° C | 55% | 1022.3 hPa | - | - | - | - |
| 1777780864 | 10.56° C | 54% | 1022.3 hPa | - | - | - | - |
| 1777779663 | 10° C | 55% | 1022.4 hPa | - | - | - | - |
| 1777778461 | 10.56° C | 54% | 1022.4 hPa | - | - | - | - |
| 1777777260 | 10.56° C | 54% | 1022.4 hPa | - | - | - | - |
| 1777776059 | 10.56° C | 55% | 1022.4 hPa | - | - | - | - |
| 1777774858 | 11.11° C | 54% | 1022.7 hPa | - | - | - | - |
| 1777773656 | 11.11° C | 54% | 1022.9 hPa | - | - | - | - |
| 1777772455 | 11.11° C | 53% | 1022.9 hPa | - | - | - | - |
| 1777771254 | 11.11° C | 54% | 1023.1 hPa | - | - | - | - |
| 1777770052 | 11.11° C | 54% | 1023.2 hPa | - | - | - | - |
| 1777768851 | 11.67° C | 53% | 1023.3 hPa | - | - | - | - |
| 1777767650 | 11.67° C | 53% | 1023.5 hPa | - | - | - | - |
| 1777766449 | 11.67° C | 52% | 1023.6 hPa | - | - | - | - |
| 1777765247 | 11.67° C | 52% | 1023.8 hPa | - | - | - | - |
| 1777764046 | 11.67° C | 52% | 1023.8 hPa | - | - | - | - |
| 1777762844 | 12.22° C | 52% | 1024 hPa | - | - | - | - |
| 1777761643 | 12.22° C | 51% | 1023.9 hPa | - | - | - | - |
| 1777760442 | 12.22° C | 50% | 1024 hPa | - | - | - | - |
| 1777759240 | 12.78° C | 51% | 1024 hPa | - | - | - | - |
* Rain since midnight (hover to see other rain measurements)
** Current wind speed in m/s (hover to see current wind gust speed)